Preview of NWS' New Version of Forecast
This preview is not operational and should not be used for support decisions.
Latest weather observations around

Trinity Center (KO86)

Using English Units (Switch to International System of Units)
Date/ Time (PDT) Wind (mph) Vis. (mi) Weather Sky Cond. Temp (°F) Rel. Humidity Wind Chill (°F) Heat Index (°F) Pressure Precip. (in)
Air Dwpt 6 hour Altimeter (inHg) Sea level (inHg) 1 hr 3 hr 6 hr
Max Min
Jun 27 00:15 WNW 6 10 Clear   50 39     66%     30.01        
Jun 26 23:55 W 3 10 Clear   52 39     62%     30.01        
Jun 26 23:35 W 5 10 Clear   54 39     58%     30        
Jun 26 23:15 Calm 10 Clear   54 39     58%     30        
Jun 26 22:55 Calm 10 Clear   54 39     58%     29.99        
Jun 26 22:35 Calm 10 Clear   55 39     54%     29.99        
Jun 26 22:15 WNW 5 10 Clear   55 37     51%     29.98        
Jun 26 21:55 NW 5 10 Clear   57 37     47%     29.97        
Jun 26 21:35 WNW 5 10 Clear   59 39     48%     29.95        
Jun 26 21:15 SSW 10 10 Clear   61 37     42%     29.94        
Jun 26 20:55 S 8 10 Clear   63 37     39%     29.94        
Jun 26 20:35   10 Clear   63 36     36%     29.93        
Jun 26 20:15 S 9 10 Clear   64 34     32%     29.93        
Jun 26 19:55   10 Clear   64 34     32%     29.92        
Jun 26 19:35 S 8 10 Clear   66 32     28%     29.91        
Jun 26 19:15 S 11 10 Clear   68 32     26%     29.91        
Jun 26 18:55 SSW 14 10 Clear   68 30     24%     29.9        
Jun 26 18:35 SW 7 10 Clear   68 30     24%     29.9        
Jun 26 18:15 SSE 8 10 Clear   70 30     23%     29.9        
Jun 26 17:55 S 10 10 Clear   70 32     25%     29.89        
Jun 26 17:35 WSW 11 10 Clear   70 32     25%     29.89        
Jun 26 17:15 WSW 10 10 Clear   72 32     23%   70 29.9        
Jun 26 16:55 SSW 16 10 Clear   72 32     23%   70 29.89        
Jun 26 16:35 SW 13 10 Clear   72 32     23%   70 29.89        
Jun 26 16:15 WSW 11 10 Clear   72 32     23%   70 29.89        
Jun 26 15:55 SW 8 10 Clear   72 32     23%   70 29.9        
Jun 26 15:35 WSW 8 10 Clear   72 32     23%   70 29.89        
Jun 26 15:15 S 8 10 Clear   73 34     23%   72 29.89        
Jun 26 14:55 S 9 10 Clear   72 36     27%   70 29.89        
Jun 26 14:35 S 7 10 Clear   72 32     23%   70 29.9        
Jun 26 14:15 S 11 10 Clear   72 36     27%   70 29.9        
Jun 26 13:55 SW 8 10 Clear   72 36     27%   70 29.9        
Jun 26 13:35 S 10 10 Clear   72 36     27%   70 29.9        
Jun 26 13:15   10 Clear   70 41     35%     29.9        
Jun 26 12:55   10 Clear   70 39     33%     29.9        
Jun 26 12:35 S 13 10 Clear   68 37     32%     29.9        
Jun 26 12:15 S 13 10 Clear   70 37     31%     29.9        
Jun 26 11:55 SSE 14 10 Clear   68 37     32%     29.9        
Jun 26 11:35 SW 8 10 Clear   68 36     30%     29.9        
Jun 26 11:15 S 10 10 Clear   66 39     37%     29.9        
Jun 26 10:55 SSE 11 10 Clear   66 41     40%     29.89        
Jun 26 10:35 SSE 10 10 Clear   66 43     43%     29.89        
Jun 26 10:15 SSE 16 10 Clear   64 41     42%     29.9        
Jun 26 09:55 Calm 10 Clear   63 41     45%     29.9        
Jun 26 09:35 SE 3 10 Clear   63 41     45%     29.91        
Jun 26 09:15 ENE 3 10 Clear   59 39     48%     29.91        
Jun 26 08:55 SE 3 10 Clear   57 39     51%     29.91        
Jun 26 08:35 Calm 10 Clear   55 37     51%     29.91        
Jun 26 08:15 Calm 10 Clear   55 39     54%     29.91        
Jun 26 07:55 Calm 10 Clear   54 41     62%     29.91        
Jun 26 07:35 Calm 10 Clear   54 41     62%     29.91        
Jun 26 07:15 Calm 10 Clear   52 39     62%     29.91        
Jun 26 06:55 Calm 10 Clear   50 37     62%     29.91        
Jun 26 06:35 WNW 5 10 Clear   46 37     71% 44   29.92        
Jun 26 06:15 W 3 10 Clear   45 37     76% 43   29.92        
Jun 26 05:55 W 6 10 Clear   46 37     71% 43   29.91        
Jun 26 05:35 W 6 10 Clear   46 36     66% 43   29.91        
Jun 26 05:15 W 7 10 Clear   46 36     66% 43   29.91        
Jun 26 04:55 W 7 10 Clear   48 36     62% 45   29.9        
Jun 26 04:35 W 6 10 Clear   46 37     71% 43   29.9        
Jun 26 04:15 WNW 7 10 Clear   48 37     66% 45   29.89        
Jun 26 03:55 WNW 5 10 Clear   48 37     66% 46   29.89        
Jun 26 03:35 W 6 10 Clear   50 37     62%     29.89        
Jun 26 03:15 WNW 6 10 Clear   50 37     62%     29.89        
Jun 26 02:55 W 5 10 Clear   50 37     62%     29.89        
Jun 26 02:35 W 5 10 Clear   52 37     58%     29.89        
Jun 26 02:15 WNW 6 10 Clear   52 37     58%     29.88        
Jun 26 01:55 W 5 10 Clear   52 37     58%     29.88        
Jun 26 01:35 W 5 10 Clear   54 37     54%     29.88        
Jun 26 01:15 W 5 10 Clear   54 37     54%     29.88        
Jun 26 00:55 W 5 10 Clear   54 37     54%     29.89        
Jun 26 00:35 W 3 10 Clear   55 36     47%     29.88        
Jun 26 00:15 WNW 7 10 Clear   55 36     47%     29.88        
Jun 25 23:55 W 6 10 Clear   55 36     47%     29.89        
Jun 25 23:35 WNW 6 10 Clear   55 36     47%     29.89        
Jun 25 23:15 W 9 10 Clear   55 37     51%     29.89        
Jun 25 22:55 W 5 10 Clear   55 37     51%     29.89        
Jun 25 22:35 W 6 10 Clear   57 37     47%     29.88        
Jun 25 22:15 WNW 8 10 Clear   57 39     51%     29.88        
Jun 25 21:55 W 7 10 Clear   59 37     45%     29.87        
Jun 25 21:35 W 6 10 Clear   63 37     39%     29.87        
Jun 25 21:15 WNW 5 10 Clear   63 37     39%     29.85        
Jun 25 20:55 NNW 6 10 Clear   64 36     34%     29.84        
Jun 25 20:35 SW 6 10 Clear   68 32     26%     29.83        
Jun 25 20:15 WSW 5 10 Clear   70 32     25%     29.83        
Jun 25 19:55 S 7 10 Clear   72 32     23%   70 29.82        
Jun 25 19:35 S 9 10 Clear   73 32     22%   71 29.82        
Jun 25 19:15 S 13 10 Clear   75 32     21%   73 29.81        
Jun 25 18:55 SSW 11 10 Clear   75 32     21%   73 29.81        
Jun 25 18:35 S 9 10 Clear   75 32     21%   73 29.81        
Jun 25 18:15 SSW 10 10 Clear   77 32     19%   75 29.81        
Jun 25 17:55 S 11 10 Clear   77 34     21%   75 29.81        
Jun 25 17:35 SSW 10 10 Clear   77 34     21%   75 29.82        
Jun 25 17:15 SW 8 10 Clear   77 36     22%   75 29.82        
Jun 25 16:55 SSW 8 10 Clear   77 36     22%   75 29.82        
Jun 25 16:35 SW 9 10 Clear   79 37     23%   77 29.82        
Jun 25 16:15   10 Clear   77 36     22%   75 29.82        
Jun 25 15:55 SSW 15 10 Clear   79 36     21%   77 29.82        
Jun 25 15:35 S 13 10 Clear   79 39     24%   78 29.82        
Jun 25 15:15   10 Clear   77 41     28%   76 29.82        
Jun 25 14:55 SSE 15 10 Clear   77 41     28%   76 29.82        
Jun 25 14:35   10 Clear   75 45     34%   74 29.83        
Jun 25 14:15 ESE 6 10 Clear   75 45     34%   74 29.84        
Jun 25 13:55 NE 6 10 Clear   73 45     36%   72 29.85        
Jun 25 13:35 NE 5 10 Clear   72 45     38%   70 29.86        
Jun 25 13:15 E 3 10 Clear   72 46     41%   70 29.87        
Jun 25 12:55 ENE 5 10 Clear   68 45     43%     29.88        
Jun 25 12:35 ENE 3 10 Clear   66 45     46%     29.88        
Jun 25 12:15 ENE 3 10 Clear   66 45     46%     29.89        
Jun 25 11:55 ENE 5 10 Clear   66 45     46%     29.89        
Jun 25 11:35 NE 3 10 Clear   64 45     49%     29.9        
Jun 25 11:15 NE 3 10 Clear   64 45     49%     29.9        
Jun 25 10:55 Calm 10 Clear   63 45     52%     29.9        
Jun 25 10:35 NE 3 10 Clear   63 45     52%     29.9        
Jun 25 10:15 NE 3 10 Clear   63 45     52%     29.9        
Jun 25 09:55 Calm 10 Clear   61 45     55%     29.9        
Jun 25 09:35 Calm 10 Clear   61 46     59%     29.91        
Jun 25 09:15 Calm 10 Clear   59 46     63%     29.91        
Jun 25 08:55 Calm 10 Clear   59 46     63%     29.91        
Jun 25 08:35 Calm 10 Clear   57 45     63%     29.91        
Jun 25 08:15 Calm 10 Clear   57 45     63%     29.91        
Jun 25 07:55 Calm 10 Clear   55 43     62%     29.9        
Jun 25 07:35 W 3 10 Clear   55 41     58%     29.9        
Jun 25 07:15 Calm 10 Clear   55 41     58%     29.9        
Notice The following observation data may not be complete
Jun 25 06:55   10 Clear            %              
Jun 25 06:35 WNW 3 10 Clear   54 39     58%     29.9        
Jun 25 06:15 WNW 3 10 Clear   54 39     58%     29.89        
Jun 25 05:55 W 5 10 Clear   54 39     58%     29.89        
Jun 25 05:35 W 5 10 Clear   54 39     58%     29.89        
Jun 25 05:15 W 6 10 Clear   54 39     58%     29.89        
Jun 25 04:55 W 6 10 Clear   54 39     58%     29.89        
Jun 25 04:35 W 5 10 Clear   54 39     58%     29.89        
Jun 25 04:15 NW 5 10 Clear   54 39     58%     29.89        
Jun 25 03:55 W 7 10 Clear   54 39     58%     29.89        
Jun 25 03:35 W 5 10 Clear   55 39     54%     29.89        
Jun 25 03:15 W 3 10 Clear   55 39     54%     29.89        
Jun 25 02:55 W 3 10 Clear   55 39     54%     29.89        
Jun 25 02:35 W 5 10 Clear   57 39     51%     29.89        
Jun 25 02:15 W 6 10 Clear   57 39     51%     29.89        
Jun 25 01:55 Calm 10 Clear   57 37     47%     29.89        
Jun 25 01:35 W 3 10 Clear   59 37     45%     29.89        
Jun 25 01:15 WNW 7 10 Clear   59 37     45%     29.89        
Jun 25 00:55 W 5 10 Clear   59 37     45%     29.89        
Jun 25 00:35 NNE 3 10 Clear   59 37     45%     29.89        
Jun 25 00:15 Calm 10 Clear   59 37     45%     29.89        
Jun 24 23:55 Calm 10 Clear   63 37     39%     29.89        
Jun 24 23:35 W 6 10 Clear   63 37     39%     29.89        
Jun 24 23:15 Calm 10 Clear   63 37     39%     29.9        
Jun 24 22:55 W 6 10 Clear   66 36     32%     29.9        
Jun 24 22:35 W 5 10 Clear   66 36     32%     29.9        
Jun 24 22:15 W 7 10 Clear   66 36     32%     29.9        
Jun 24 21:55 W 5 10 Clear   68 37     32%     29.89        
Jun 24 21:35 W 5 10 Clear   72 36     27%   70 29.89        
Jun 24 21:15 NNW 5 10 Clear   70 37     31%     29.88        
Jun 24 20:55 NW 3 10 Clear   72 36     27%   70 29.88        
Jun 24 20:35 NNW 6 10 Clear   73 36     25%   72 29.87        
Jun 24 20:15 NW 7 10 Clear   73 36     25%   72 29.87        
Jun 24 19:55 NW 8 10 Clear   75 36     24%   74 29.87        
Jun 24 19:35 W 7 10 Clear   77 36     22%   75 29.86        
Jun 24 19:15 NW 11 10 Clear   77 36     22%   75 29.86        
Jun 24 18:55 NW 10 10 Clear   77 34     21%   75 29.85        
Jun 24 18:35 NW 10 10 Clear   79 34     20%   77 29.85        
Jun 24 18:15 NNW 6 10 Clear   81 36     20%   79 29.85        
Jun 24 17:55 N 9 10 Clear   81 36     20%   79 29.85        
Jun 24 17:35 N 10 10 Clear   81 37     21%   79 29.85        
Jun 24 17:15 N 8 10 Clear   81 37     21%   79 29.85        
Jun 24 16:55 N 9 10 Clear   81 36     20%   79 29.85        
Jun 24 16:35 N 7 10 Clear   81 36     20%   79 29.86        
Jun 24 16:15 N 9 10 Clear   81 36     20%   79 29.86        
Jun 24 15:35 ENE 3 10 Clear   82 37     20%   80 29.87        
Jun 24 15:15 Calm 10 Clear   82 36     19%   80 29.88        
Jun 24 14:55 Calm 10 Clear   81 37     21%   79 29.88        
Jun 24 14:35 S 6 10 Clear   82 36     19%   80 29.88        
Jun 24 14:15 Calm 10 Clear   81 36     20%   79 29.89        
Jun 24 13:55 NNE 8 10 Clear   82 36     19%   80 29.89        
Jun 24 13:35 SSE 5 10 Clear   81 37     21%   79 29.91        
Jun 24 13:15 NNW 10 10 Clear   82        %     29.9        
Jun 24 12:55 NNW 6 10 Clear   81 30     16%   79 29.91        
Jun 24 12:35 SE 7 10 Clear   79 45     30%   78 29.91        
Jun 24 12:15 SSE 7 10 Clear   77 41     28%   76 29.92        
Jun 24 11:55 SSE 9 10 Clear   77 48     36%   76 29.93        
Jun 24 11:35 SSE 9 10 Clear   75 48     38%   74 29.93        
Jun 24 11:15 SSE 10 10 Clear   73 50     44%   72 29.94        
Jun 24 10:55 Calm 10 Clear   72 46     41%   70 29.94        
Jun 24 10:35 NE 3 10 Clear   68 46     46%     29.95        
Jun 24 10:15 NE 3 10 Clear   68 46     46%     29.96        
Jun 24 09:55 Calm 10 Clear   66 45     46%     29.97        
Jun 24 09:35 Calm 10 Clear   64 45     49%     29.97        
Jun 24 09:15 Calm 10 Clear   64 48     56%     29.98        
Jun 24 08:55 Calm 10 Clear   63 45     52%     29.99        
Jun 24 08:35 Calm 10 Clear   61 46     59%     29.99        
Jun 24 08:15 Calm 10 Clear   61 46     59%     29.99        
Jun 24 07:55 Calm 10 Clear   59 46     63%     29.99        
Jun 24 07:35 Calm 10 Clear   57 45     63%     29.99        
Jun 24 07:15 Calm 10 Clear   55 43     62%     30        
Jun 24 06:55 Calm 10 Clear   54 43     67%     30        
Jun 24 06:35 Calm 10 Clear   55 43     62%     30        
Jun 24 06:15 WNW 5 10 Clear   54 41     62%     29.99        
Jun 24 05:55 W 6 10 Clear   52 41     67%     29.99        
Jun 24 05:35 W 5 10 Clear   54 41     62%     29.99        
Jun 24 05:15 W 6 10 Clear   52 41     67%     29.99        
Jun 24 04:55 W 5 10 Clear   54 41     62%     29.99        
Jun 24 04:35 W 6 10 Clear   54 41     62%     29.99        
Jun 24 04:15 W 7 10 Clear   54 41     62%     29.99        
Jun 24 03:55 W 6 10 Clear   55 41     58%     30        
Jun 24 03:35 W 6 10 Clear   55 41     58%     30        
Jun 24 03:15 W 7 10 Clear   57 41     55%     30        
Jun 24 02:55 W 5 10 Clear   55 43     62%     30.01        
Jun 24 02:35 W 5 10 Clear   57 43     59%     30.01        
Jun 24 02:15 WNW 5 10 Clear   57 43     59%     30        
Jun 24 01:55 W 6 10 Clear   59 43     55%     30        
Jun 24 01:35 W 3 10 Clear   59 43     55%     30        
Jun 24 01:15 NW 5 10 Clear   61 43     51%     30        
Jun 24 00:55 W 6 10 Clear   63 41     45%     30        
Jun 24 00:35 W 6 10 Clear   63 41     45%     30        
Jun 24 00:15 W 6 10 Clear   63 43     48%     30        
Jun 23 23:55 W 5 10 Clear   64 41     42%     30        
Jun 23 23:35 WSW 6 10 Clear   64 41     42%     30        
Jun 23 23:15 W 6 10 Clear   64 41     42%     30        
Jun 23 22:55 WNW 3 10 Clear   64 43     45%     30.01        
Notice The following observation data may not be complete
Jun 12 00:35   10 Clear CLR          %              
Jun 11 23:15 NW 5 10 Mostly Cloudy BKN050 48 41     76% 46   29.97        
Jun 11 21:15 NNE 6 10 Clear   54 39     58%     29.96        
Jun 11 20:55 N 5 10 Cloudy OVC070 54 37     54%     29.95        
Jun 11 17:55 SSE 6 10 Mostly Clear FEW120 55        %     29.91        
Jun 11 14:55 Calm 10 Clear   50 39     66%     29.95        
Jun 11 14:15 NNW 3 10 Clear CLR 50 39     66% 49   29.95        
Notice The following observation data may not be complete
Jun 11 11:55   10 Clear CLR          %              
Jun 11 10:35 Calm 10 Clear CLR 45 39     81%     29.92        
Notice The following observation data may not be complete
Jun 10 22:35   10 Partly Cloudy FEW070 SCT085          %              
Jun 10 16:15 SSW 14 10 Clear   59        %     29.86        
Jun 10 11:15 S 8 10 Mostly Cloudy BKN045 55 39     54%     29.9        
Jun 10 10:55 SSE 10 10 Cloudy BKN039 OVC046 54 39     58%     29.91        
Jun 10 02:35 W 7 10 Clear CLR 41 36     81% 36   29.92        
Jun 09 05:55 WSW 6 10 Cloudy OVC022 48 43     81% 46   29.95        
Jun 09 03:35 WSW 3 10 Mostly Cloudy SCT017 BKN023 BKN036 48 46     93% 47   29.97        
Jun 09 00:15 W 5 10 Clear CLR 50 48     94% 48   29.99        
Jun 08 21:55 WNW 3 10 Cloudy FEW025 SCT031 OVC038 54 48     82%     30.01        
Notice The following observation data may not be complete
Jun 08 21:15   10 Cloudy OVC034          %              
Jun 08 18:15 SSW 3 9 Mostly Cloudy FEW025 SCT034 BKN040 55 50     82%     30        
Notice The following observation data may not be complete
Jun 08 10:35   10 Cloudy BKN020 OVC028          %              
Jun 08 10:15 S 3 10 Cloudy BKN020 OVC025 50 48     94% 49   29.98        
Notice The following observation data may not be complete
Jun 08 08:55   3 Mostly Cloudy SCT019 BKN027          %              
Notice The following observation data may not be complete
Jun 08 08:35   3 Cloudy FEW012 BKN019 OVC024          %              
Notice The following observation data may not be complete
Jun 08 07:35   1.5 Cloudy SCT003 OVC017          %              
Jun 08 02:15 W 3 5 Cloudy FEW003 BKN036 OVC043 54 54     100%     29.85        
Jun 07 23:15 S 7 9 Mostly Cloudy FEW034 SCT055 BKN075 57 46     67%              
Notice The following observation data may not be complete
Jun 07 22:35   10 Partly Cloudy FEW065 SCT110          %              
Jun 07 18:55 S 9 10 Clear CLR 72 45     38%   70 29.82        
Jun 07 13:55 SSE 8 10 Clear CLR 79        %     29.85        
Jun 06 08:15 ENE 3 10 Clear CLR 61 43     51%     30        
Notice The following observation data may not be complete
Jun 06 06:15   10 Clear CLR          %              
Jun 06 05:55 W 6 10 Clear CLR 52 39     62%     29.99        
Jun 06 03:15 Calm 10 Clear CLR 55 41     58%     29.97        
Jun 06 01:15 W 3 10 Clear CLR 59 41     51%     29.97        
Notice The following observation data may not be complete
Jun 05 23:35   10 Clear CLR          %              
Notice The following observation data may not be complete
Jun 05 23:15   10 Clear CLR          %              
Jun 05 19:15 S 3 10 Clear CLR 82        %     29.9        
Jun 05 12:15 Calm 9 Clear CLR 75        %     29.97